Location: Ariel
(45.9570°N, 122.5700°W)
Time: 20:11:51
(UTC-07:00)

Tiros 1 despin weight - All Passes

Search period start: 22 July 2019 00:00
Search period end: 01 August 2019 00:00
Orbit: 594 x 642 km, 48.2° (Epoch: 21 July)

Date Brightness Start Highest point End Pass type
(mag) Time Alt. Az. Time Alt. Az. Time Alt. Az.
22 Jul - 11:27:23 10° S 11:30:35 18° SE 11:33:48 10° E daylight
22 Jul - 13:06:55 10° SW 13:11:35 64° SSE 13:16:14 10° ENE daylight
22 Jul - 14:48:33 10° W 14:53:14 68° N 14:57:54 10° ENE daylight
22 Jul - 16:30:23 10° WNW 16:35:05 81° NNE 16:39:43 10° ESE daylight
22 Jul - 18:12:10 10° W 18:16:29 39° SSW 18:20:44 10° SE daylight
23 Jul - 11:42:46 10° SSW 11:46:53 31° SE 11:51:01 10° E daylight
23 Jul - 13:23:28 10° WSW 13:28:11 89° SE 13:32:53 10° ENE daylight
23 Jul - 15:05:19 10° W 15:09:59 66° N 15:14:38 10° E daylight
23 Jul - 16:47:03 10° WNW 16:51:44 77° SSW 16:56:20 10° ESE daylight
23 Jul - 18:29:10 10° W 18:32:51 23° SW 18:36:27 10° SSE daylight
24 Jul - 10:20:24 10° SSE 10:22:31 13° SE 10:24:39 10° ESE daylight
24 Jul - 11:58:48 10° SW 12:03:20 50° SSE 12:07:52 10° ENE daylight
24 Jul - 13:40:10 10° W 13:44:52 73° N 13:49:34 10° ENE daylight
24 Jul - 15:22:02 10° WNW 15:26:44 73° N 15:31:23 10° E daylight
24 Jul - 17:03:45 10° WNW 17:08:17 51° SSW 17:12:44 10° SE daylight
24 Jul - 18:46:58 10° WSW 18:49:04 13° SW 18:51:09 10° SSW daylight
25 Jul - 10:35:04 10° SSW 10:38:45 23° SE 10:42:27 10° E daylight
25 Jul - 12:15:11 10° WSW 12:19:52 75° SSE 12:24:34 10° ENE daylight
25 Jul - 13:56:55 10° W 14:01:37 66° N 14:06:17 10° E daylight
25 Jul - 15:38:43 10° WNW 15:43:26 89° NE 15:48:05 10° ESE daylight
25 Jul - 17:20:35 10° W 17:24:43 31° SW 17:28:47 10° SSE daylight
26 Jul - 10:50:47 10° SW 10:55:06 38° SSE 10:59:28 10° E daylight
26 Jul - 12:31:48 10° WSW 12:36:31 82° NNW 12:41:14 10° ENE daylight
26 Jul - 14:13:40 10° WNW 14:18:22 68° N 14:23:01 10° E daylight
26 Jul - 15:55:23 10° WNW 16:00:02 66° SSW 16:04:38 10° ESE daylight
26 Jul - 17:37:48 10° W 17:41:01 19° SW 17:44:12 10° S daylight
27 Jul - 09:27:41 10° S 09:30:40 17° SE 09:33:39 10° E daylight
27 Jul - 11:06:59 10° SW 11:11:36 61° SSE 11:16:15 10° ENE daylight
27 Jul - 12:48:32 10° W 12:53:14 69° N 12:57:55 10° ENE daylight
27 Jul - 14:30:22 10° WNW 14:35:06 78° NNE 14:39:46 10° E daylight
27 Jul - 16:12:07 10° WNW 16:16:32 42° SSW 16:20:54 10° SE daylight
28 Jul - 09:42:56 10° SSW 09:46:57 29° SE 09:50:59 10° E daylight
28 Jul - 11:23:29 10° WSW 11:28:12 86° SSE 11:32:54 10° ENE daylight
28 Jul - 13:05:18 10° W 13:09:59 66° N 13:14:40 10° E daylight
28 Jul - 14:47:02 10° WNW 14:51:46 81° SSW 14:56:25 10° ESE daylight
28 Jul - 16:29:04 10° W 16:32:55 25° SW 16:36:43 10° SSE daylight
29 Jul - 08:21:01 10° SSE 08:22:37 12° SE 08:24:13 10° ESE daylight
29 Jul - 09:58:53 10° SW 10:03:21 47° SSE 10:07:52 10° ENE daylight
29 Jul - 11:40:10 10° W 11:44:52 75° NNW 11:49:35 10° ENE daylight
29 Jul - 13:22:01 10° WNW 13:26:44 71° N 13:31:25 10° E daylight
29 Jul - 15:03:43 10° WNW 15:08:19 55° SSW 15:12:51 10° SE daylight
29 Jul - 16:46:38 10° WSW 16:49:10 15° SW 16:51:41 10° SSW daylight
30 Jul - 08:35:19 10° S 08:38:49 21° SE 08:42:21 10° E daylight
30 Jul - 10:15:14 10° WSW 10:19:53 72° SSE 10:24:35 10° ENE daylight
30 Jul - 11:56:54 10° W 12:01:36 67° N 12:06:18 10° E daylight
30 Jul - 13:38:42 10° WNW 13:43:25 86° NNE 13:48:07 10° ESE daylight
30 Jul - 15:20:32 10° W 15:24:46 34° SW 15:28:58 10° SSE daylight
31 Jul - 08:50:55 10° SSW 08:55:10 35° SE 08:59:26 10° E daylight
31 Jul - 10:31:49 10° WSW 10:36:30 85° NNW 10:41:14 10° ENE daylight
31 Jul - 12:13:40 10° W 12:18:21 67° N 12:23:02 10° E daylight
31 Jul - 13:55:22 10° WNW 14:00:03 70° SSW 14:04:42 10° ESE daylight
31 Jul - 15:37:39 10° W 15:41:06 20° SW 15:44:31 10° S daylight
